Find Starlink 32677

NORAD ID: 63020 Int'l Des: 2025-032 Owner: SPXS Country: US Constellation: starlink operational
LEOCIRCULAR

当前视图

正在加载3D地球...

About Starlink 32677

Starlink 32677 (NORAD 63020) is a starlink constellation satellite (v2 mini) launched Feb 15, 2025 by SPXS of US. It operates in LEO, CIRCULAR orbit with a mass of 730.00 kg.

即将过境

Passes for default location (London). Set your location on the main map for personalized predictions.

高度历史

Loading altitude history...

两行轨道根数

1 63020U 25032R 26235.71979516 .00011204 00000-0 41598-3 0 9994
2 63020 43.0026 112.8789 0001675 270.9398 89.1262 15.27585390 86154
Epoch: Aug 23, 2026 • Age: 15 hours

当前状态

高度 487.3 km
远地点 / 近地点 N/A
速度 7.63 km/s
星下点 43.14°N, 107.72°E
发射日期 Feb 15, 2025
运行时间 1.5 years
类型 internet

技术详情

分类 Payload
质量 730.00 kg
干质量 700.00 kg
总质量 730.00 kg
长度 0.30 m
直径 4.10 m
跨度 29.00 m
形状 Box + pan
制造商 SPXS
平台类型 Starlink V2M
阶段状态 In Orbit
所有者/国家 SPXS/US

Most Searched